Simultaneous Nadir Overpasses (SNOs) Predictions

Prediction of SNOs between NOAA-20 and AQUA Satellite Orbit:

Table of predicted SNOs for the next 14.0 days since TLE Epoch: 11/6/2021
Index Date (NOAA-20) Time (NOAA-20) Lat,Lon (NOAA-20) SZA (NOAA-20 ) Date (AQUA) Time (AQUA) Lat,Lon (AQUA) SZA (AQUA ) Distance(km) Time Diff (sec)
1 11/07/2021 14:29:49 -76.40, 22.81 68.07 11/07/2021 14:29:57 -76.41, 22.91 68.11 2.96 8
2 11/07/2021 15:20:07 77.53,-165.21 110.59 11/07/2021 15:18:59 77.53,-165.30 110.67 2.21 68
3 11/10/2021 05:56:08 75.87, -30.55 113.27 11/10/2021 05:57:11 75.87, -30.54 113.21 0.21 63
4 11/10/2021 06:46:30 -76.95, 140.71 67.96 11/10/2021 06:46:16 -76.94, 140.66 67.93 1.46 14
5 11/12/2021 22:12:53 76.21, 86.38 113.62 11/12/2021 22:13:33 76.21, 86.39 113.58 0.30 40
6 11/12/2021 23:03:17 -77.18,-102.54 67.51 11/12/2021 23:02:40 -77.17,-102.59 67.46 1.52 37
7 11/15/2021 14:29:38 76.58,-156.47 113.89 11/15/2021 14:29:55 76.58,-156.51 113.89 1.27 17
8 11/15/2021 15:20:10 -77.19, 13.30 66.82 11/15/2021 15:19:09 -77.20, 13.41 66.80 2.90 61
9 11/18/2021 05:56:06 -75.73, 149.02 64.50 11/18/2021 05:57:16 -75.73, 149.05 64.57 0.82 70
10 11/18/2021 06:46:29 76.68, -40.31 114.44 11/18/2021 06:46:22 76.68, -40.26 114.43 1.57 7



Historial Predications of SNOs between NOAA-20 and AQUA
